Probability
0 0 0 0 0 0 0 0 0 0 2 6 10 14 17 19 19 19 22 29 38 43 45 44 46 49 50 48 43 37 35 32 29 27 25 24 24 23 22 22 24 23 20 18
0 0 0 0 0 0 0 0 0 0 3 7 12 15 18 18 19 20 22 28 34 40 44 45 46 48 49 47 43 39 35 31 28 26 24 23 23 22 21 20 21 20 18 17
0 0 0 0 0 0 0 0 1 1 3 7 12 17 20 20 22 25 27 29 33 38 42 44 45 47 48 46 42 39 34 30 27 25 23 23 23 21 19 19 18 16 15 16
0 0 0 0 0 0 0 1 2 2 5 9 13 19 22 22 25 29 31 34 38 41 42 42 43 46 45 41 38 34 31 29 27 24 22 23 22 20 18 17 15 13 13 13
0 0 0 0 0 0 0 2 3 4 8 12 16 19 21 23 26 31 35 39 44 46 45 43 43 44 41 37 34 31 29 28 25 22 21 21 20 17 15 14 13 11 11 11
0 0 0 0 0 0 0 2 4 9 13 15 15 17 21 27 31 36 42 47 51 52 50 47 44 42 39 35 33 29 27 26 23 20 19 18 17 15 13 11 11 10 10 10
0 0 0 1 2 2 3 6 11 15 18 18 17 19 26 33 38 42 48 53 55 55 53 49 44 42 39 35 31 27 24 22 20 17 16 16 15 13 12 10 10 10 10 10
0 0 2 4 6 10 14 18 20 21 22 21 22 27 31 36 41 46 52 56 56 53 50 45 41 40 37 33 28 23 20 18 16 13 12 13 13 12 11 10 10 10 9 9
2 2 4 7 12 19 24 28 28 27 26 25 27 31 33 37 43 50 56 58 55 51 46 41 38 37 35 31 26 21 17 15 12 11 10 11 12 12 11 10 10 9 9 8
6 6 7 11 16 21 25 28 30 30 29 28 28 30 36 41 47 54 58 56 53 50 46 40 36 33 31 28 24 18 14 12 10 9 9 10 11 11 10 9 9 8 7 7
11 12 14 16 19 19 21 25 29 30 29 28 28 34 42 47 51 54 54 53 52 50 45 40 35 30 28 25 20 15 12 10 9 8 8 8 8 8 8 7 7 6 6 6
18 20 21 22 22 21 21 25 29 31 29 28 31 37 43 47 49 48 47 49 49 46 41 36 32 28 25 22 18 14 11 9 7 7 7 7 6 6 5 5 4 3 3 3
23 24 25 24 23 23 24 25 27 29 30 30 32 34 39 43 43 41 40 42 43 41 37 32 28 26 23 20 17 14 11 8 6 6 6 6 6 6 6 5 4 2 1 1
23 24 24 23 22 23 24 23 22 24 27 29 30 32 36 38 38 35 34 34 35 34 32 30 27 25 21 17 14 12 9 7 5 4 4 4 5 6 6 6 4 3 2 1
21 22 22 21 20 21 21 20 20 20 22 25 28 32 33 33 32 30 29 28 28 28 27 27 25 23 17 11 9 9 7 5 3 3 3 3 4 5 6 6 4 3 3 3
19 19 19 19 18 18 18 17 18 19 21 23 27 29 28 27 26 25 25 24 23 22 22 22 21 19 15 9 7 7 6 4 3 3 3 3 3 4 4 5 4 3 3 3
17 17 18 17 15 14 14 16 19 20 21 23 24 25 24 23 22 22 22 22 21 20 18 17 18 18 15 10 7 7 6 5 4 3 3 3 3 3 4 4 4 3 3 3
16 17 17 15 12 11 13 16 19 21 21 20 21 20 20 19 20 21 21 21 20 18 16 15 16 17 14 9 7 7 7 6 4 3 3 3 3 3 4 4 3 2 2 2
12 13 15 14 13 13 15 16 18 20 20 18 17 16 16 16 17 18 18 18 17 15 14 13 15 15 12 8 6 6 6 5 4 3 2 2 2 2 3 2 1 1 1 1
7 8 11 13 13 14 15 16 18 19 19 16 14 12 12 13 14 14 12 11 11 12 12 12 13 13 11 7 5 5 4 4 3 1 1 0 1 1 1 1 0 0 0 0
6 7 9 10 11 12 13 13 14 16 15 12 10 9 9 10 10 10 8 7 8 9 10 10 11 10 9 6 4 4 3 3 2 1 0 0 0 0 0 0 0 0 0 0
9 10 10 10 10 10 10 9 10 11 10 7 6 6 7 7 6 5 5 5 6 8 9 9 8 7 6 5 4 3 3 3 2 1 0 0 0 0 0 0 0 0 0 0
11 11 10 9 8 7 6 7 8 7 5 3 3 3 4 4 3 2 2 3 5 6 8 9 7 5 4 4 5 4 3 2 1 0 0 0 0 0 0 0 0 0 0 0
10 10 9 7 5 4 5 6 6 5 3 2 1 1 1 2 1 1 0 1 2 4 6 6 5 3 3 4 5 4 3 2 0 0 0 0 0 0 0 0 0 0 0 0
9 9 8 5 3 2 3 4 4 4 3 2 2 1 0 0 0 0 0 0 0 1 2 3 2 2 2 4 4 4 3 2 1 0 0 0 0 0 0 0 0 0 0 0
6 7 6 4 2 2 3 3 3 3 3 3 2 1 0 0 0 0 0 0 0 0 1 2 2 2 3 4 5 4 4 2 1 0 0 0 0 0 0 0 0 0 0 0
4 5 5 3 1 1 2 3 3 3 2 2 2 1 0 0 0 0 0 0 0 0 0 1 2 3 3 4 5 5 4 2 0 0 0 0 0 0 0 0 0 0 0 0
Wind_Speed
8 5 10 14 16 17 17 15 13 11 10 7 6 5 5 5 5 6 6 7 7 7 7 7 7 6 6 6 6 6 6 6 5 4 4 3 3 3 3 2 2 2 2 2
10 8 10 12 14 16 16 15 14 11 9 4 4 4 5 6 6 6 6 7 7 7 7 6 7 6 6 6 6 6 6 6 6 5 5 4 4 4 4 4 4 4 3 3
11 11 11 14 14 15 15 14 13 13 8 5 6 7 7 7 7 6 6 6 7 7 7 6 6 6 7 7 7 7 6 6 6 5 5 5 5 5 5 5 5 4 4 4
9 11 14 7 7 11 12 11 10 8 5 6 6 5 5 6 6 6 6 6 7 7 7 7 7 7 7 7 7 7 6 6 5 5 5 6 6 5 5 5 5 5 5 5
9 12 10 7 6 9 11 10 9 8 6 5 5 5 5 5 6 6 6 6 6 7 8 8 8 8 8 8 8 7 6 6 5 5 6 6 6 6 5 6 6 5 5 5
10 12 11 8 8 7 8 10 7 8 8 8 8 8 5 5 5 6 6 6 7 8 9 8 8 9 9 8 8 7 6 6 6 6 6 6 6 6 6 6 6 6 6 6
11 10 7 5 7 9 11 5 5 7 8 9 8 2 4 5 5 6 7 7 8 8 8 8 9 9 8 8 7 7 7 7 7 6 6 7 7 6 6 6 6 6 7 6
11 11 7 7 8 7 1 4 4 5 5 6 4 4 5 5 6 7 7 9 9 9 8 8 9 9 9 8 8 8 8 8 7 7 6 6 7 6 6 6 7 6 6 6
5 2 5 4 2 3 2 3 2 3 4 4 5 5 5 6 6 7 8 8 8 9 9 8 8 8 9 9 9 9 9 8 8 7 6 6 6 6 6 5 4 5 5 5
4 4 4 3 2 2 2 2 1 2 3 4 5 5 6 6 7 7 7 7 7 9 9 8 8 8 9 9 9 9 9 8 7 7 7 6 4 4 4 3 4 4 4 4
5 4 5 5 3 3 2 2 2 2 2 2 4 5 6 6 7 7 7 7 7 7 8 8 8 8 9 9 9 9 9 8 7 7 7 6 5 4 3 4 3 2 3 3
3 5 3 5 3 2 2 2 2 2 2 2 3 5 6 6 6 6 7 7 7 7 8 8 8 8 8 9 9 9 8 7 6 6 6 6 7 6 11 8 9 8 7 4
0 1 1 2 3 2 2 2 2 2 3 3 3 5 5 5 6 7 7 7 7 7 8 9 9 8 8 8 8 8 7 7 5 6 6 6 6 7 7 6 8 8 7 7
2 3 3 4 3 2 2 2 2 2 3 3 4 4 5 6 6 6 6 6 7 7 8 8 9 9 8 8 8 8 8 7 6 6 6 6 6 6 6 6 6 5 6 6
3 3 3 2 2 2 2 2 3 3 3 3 4 4 5 6 6 5 6 6 7 7 8 8 8 8 8 9 8 8 7 6 6 5 5 5 6 6 5 6 5 6 7 7
3 3 4 4 3 3 3 3 3 3 3 3 3 3 4 5 5 5 5 6 7 7 7 8 8 8 8 9 8 7 6 7 6 6 6 6 6 5 5 6 5 5 5 6
4 5 5 5 5 4 3 3 2 2 2 2 3 4 5 6 6 5 5 5 6 6 6 7 7 8 8 8 8 6 7 7 7 6 5 5 5 5 5 5 5 5 4 4
6 5 5 4 4 3 3 3 3 3 3 3 4 5 6 6 6 5 5 5 6 6 5 6 7 8 8 7 6 5 6 7 6 5 5 5 5 5 4 5 5 5 5 6
6 6 5 4 4 4 3 3 3 3 3 4 4 5 5 5 5 5 5 5 6 6 5 6 6 7 8 7 6 5 6 6 6 5 5 5 5 5 5 5 4 4 5 5
3 4 4 4 4 4 4 4 4 3 3 4 4 5 5 5 5 5 5 4 3 3 5 6 7 7 7 8 6 6 6 6 6 6 6 6 5 5 5 5 5 5 5 4
2 3 4 4 4 4 4 4 4 5 4 4 4 5 5 4 5 5 5 4 4 4 6 6 5 5 6 6 6 6 6 6 6 5 5 5 5 5 5 5 4 4 4 4
2 2 3 3 3 3 3 3 4 4 5 5 4 5 5 4 5 4 3 2 4 4 4 5 5 5 5 6 6 6 6 6 5 4 4 4 4 4 4 4 4 4 4 4
1 2 2 2 3 3 3 3 3 4 4 5 5 5 4 4 3 4 4 3 4 4 3 4 6 7 6 6 5 6 6 5 4 4 4 4 4 4 4 4 4 4 4 4
1 2 2 2 3 3 3 3 3 3 4 4 4 4 4 4 3 3 4 6 5 5 4 6 7 6 5 4 5 5 5 5 4 4 4 4 3 3 3 4 4 4 4 4
1 1 2 3 3 2 3 3 4 4 4 3 4 4 3 3 4 4 5 7 7 6 6 7 6 5 4 4 5 4 4 4 3 4 4 3 3 3 3 3 3 3 3 3
1 1 1 2 1 2 2 2 3 3 3 4 3 4 4 4 5 5 5 7 8 6 6 6 6 5 4 4 5 5 5 5 5 4 4 3 3 3 2 2 2 2 2 2
1 1 1 2 2 2 2 3 3 3 4 4 4 4 4 5 5 5 6 6 6 6 5 5 5 5 4 4 5 5 4 4 4 4 4 3 3 3 3 3 2 2 2 2
Wind_Direction
238 210 198 202 203 207 218 230 236 228 230 212 189 184 166 159 152 145 139 137 138 138 135 138 140 141 141 138 138 139 138 134 132 132 131 135 131 122 110 108 112 107 105 97
212 211 212 214 210 210 219 228 236 238 233 208 189 182 174 175 171 165 157 150 148 145 141 142 142 140 137 135 136 138 136 132 129 128 125 123 118 109 104 98 93 89 88 87
205 198 209 216 212 211 215 222 229 232 227 190 199 196 190 184 182 176 164 158 157 155 149 145 139 135 136 137 137 134 131 130 130 128 122 116 113 111 112 105 96 87 82 83
203 193 218 204 204 217 221 220 228 240 219 203 207 192 190 188 186 178 167 161 157 153 147 142 138 135 135 136 135 133 133 131 129 128 124 121 116 112 107 104 101 95 87 84
211 209 209 178 190 205 212 218 223 223 207 185 171 176 182 177 180 177 165 155 150 150 146 141 139 138 137 135 134 133 132 132 131 129 125 123 119 111 106 104 101 97 90 86
215 222 216 190 169 193 216 216 199 205 198 184 187 205 167 147 158 158 150 144 143 142 142 141 140 142 140 135 133 131 130 127 124 125 125 121 116 113 109 106 104 101 91 85
215 222 217 135 150 179 213 197 166 194 195 195 205 229 115 128 139 147 144 142 143 142 140 140 143 143 138 133 130 127 124 122 119 119 121 119 116 113 113 110 105 100 98 92
215 221 197 136 175 202 108 86 144 172 185 190 177 146 135 136 138 142 142 142 142 139 136 140 146 144 137 132 127 125 123 120 117 118 120 120 117 113 114 116 116 112 107 102
215 205 79 147 146 76 86 130 143 169 174 174 172 166 154 143 140 141 141 141 141 139 137 140 148 146 138 133 132 130 127 121 119 118 113 117 120 123 127 130 128 125 125 119
181 153 145 154 152 155 158 158 161 167 172 178 181 171 157 146 144 142 141 142 143 143 143 142 144 142 135 137 138 135 130 125 125 123 118 110 111 117 119 123 123 122 121 120
190 160 159 159 154 148 149 164 144 129 138 168 172 163 154 148 147 144 141 141 146 148 145 143 141 139 137 139 141 136 134 133 132 126 118 111 94 63 80 76 62 96 114 119
185 161 189 143 140 151 153 140 118 111 104 120 150 150 150 146 144 143 141 142 145 147 144 141 140 140 141 144 146 144 144 145 143 139 133 132 124 103 54 60 65 57 48 58
12 170 153 150 167 167 163 138 123 123 124 128 133 142 145 141 144 142 143 148 148 146 144 142 143 143 145 148 151 151 147 146 145 144 143 145 144 140 129 96 73 67 66 69
186 177 168 165 157 155 152 134 124 120 119 125 130 135 140 141 141 145 147 145 144 144 144 145 145 145 148 150 152 152 149 143 149 149 151 151 150 150 146 145 139 126 103 97
199 207 195 175 180 174 170 166 157 145 134 131 130 134 140 137 138 142 140 140 143 147 148 147 147 147 151 154 156 157 155 151 151 150 153 152 153 153 150 147 142 140 136 128
204 206 205 202 198 190 181 177 174 156 147 143 137 133 136 134 131 134 139 147 154 155 153 154 153 152 154 156 155 153 146 138 153 157 155 155 159 161 156 152 151 151 151 146
213 212 207 205 206 207 204 196 190 164 148 148 146 143 142 139 137 140 142 146 146 149 154 153 151 151 156 159 161 154 149 149 162 167 162 161 163 163 158 159 160 159 148 127
228 228 224 220 216 203 192 184 179 173 169 164 158 155 157 156 152 147 144 139 138 141 146 151 150 150 154 157 158 154 154 157 167 168 166 166 162 163 165 165 164 161 148 147
218 216 212 206 201 195 186 176 175 171 163 166 163 161 158 155 149 148 148 150 152 149 149 144 143 158 154 149 153 157 157 159 162 163 162 154 171 172 170 168 164 161 160 161
200 199 196 190 184 186 185 178 174 171 170 168 162 158 155 150 149 148 151 157 159 144 145 149 159 157 153 150 165 162 160 163 162 160 164 172 171 170 172 169 168 168 169 172
178 176 179 175 171 173 177 178 177 174 172 170 164 163 157 152 153 155 161 153 135 135 142 149 158 154 153 151 177 166 161 162 162 165 169 171 171 174 173 171 173 175 179 183
167 165 166 167 166 161 158 167 172 173 169 161 158 153 152 155 151 146 145 137 134 138 156 158 151 138 145 164 169 160 159 162 163 164 167 171 174 176 176 178 180 180 182 187
139 137 137 143 150 147 151 160 165 167 161 158 159 161 160 159 162 155 144 136 139 145 161 136 121 132 159 179 159 157 156 159 160 161 168 175 176 177 176 180 181 184 185 189
94 120 130 135 140 151 160 157 145 141 139 141 152 157 157 155 148 134 123 126 127 142 131 115 128 149 189 168 150 151 151 154 160 165 168 167 173 174 175 180 181 185 188 194
106 139 149 157 167 168 157 151 145 144 142 138 140 143 150 143 138 131 130 133 138 143 130 131 145 170 177 147 145 146 150 150 155 160 160 163 170 169 168 173 178 185 189 195
170 162 151 163 165 166 164 159 152 146 147 144 136 132 127 124 129 134 136 138 139 139 139 143 152 168 157 145 141 141 144 150 162 167 160 158 155 155 157 168 187 196 196 197
133 138 147 160 158 164 165 160 155 150 151 147 139 135 133 135 139 140 139 139 142 144 147 151 152 150 147 146 145 149 152 152 152 153 157 158 155 161 169 183 195 191 195 189